Location: Kouchibouguac National Park
(46.8081°N, 64.9088°W)
Time: 21:01:51
(UTC-03:00)

Amateur Radio Satellites - All Passes

Search period start: 20 September 2014 20:31
Search period end: 21 September 2014 20:31
Location: Kouchibouguac National Park, 46.8081°N, 64.9088°W

Satellite Date Start Highest point End Downlink Frequencies (MHz)
Time Altitude Azimuth
STRAND 1 20 Sep 20:43:30 20:48:36 66° 288° (WNW) 20:53:41 ?
Sapphire 20 Sep 20:55:46 21:01:02 47° 49° (NE) 21:06:16 437.095 MHz 1200 baud AX-25 AFSK
Oscar 11 20 Sep 21:04:35 21:07:48 21° 63° (ENE) 21:11:03 145.825 FM, Beacon 2401.500 USB
UKube-1 20 Sep 21:21:27 21:25:29 40° 69° (ENE) 21:29:34 145.840 MHz, 145.915 MHz
PCSat 20 Sep 21:22:39 21:28:06 77° 56° (NE) 21:33:32 145.825 MHz
HO-68 20 Sep 21:50:20 21:57:22 61° 257° (WSW) 22:04:27 435.675 MHz FM
SO-50 20 Sep 21:52:05 21:54:55 17° 110° (ESE) 21:57:47 436.795 FM
KITSAT 1 20 Sep 21:54:54 22:02:27 41° 321° (NW) 22:10:02 435.175 FM
STRAND 1 20 Sep 22:25:23 22:26:50 11° 307° (NW) 22:28:18 ?
FUNcube-1 20 Sep 22:32:08 22:36:31 63° 73° (ENE) 22:41:01 145.950 - 145.970 MHz USB
Oscar 11 20 Sep 22:39:29 22:43:41 47° 261° (W) 22:47:56 145.825 FM, Beacon 2401.500 USB
Sapphire 20 Sep 22:39:32 22:44:17 32° 249° (WSW) 22:49:01 437.095 MHz 1200 baud AX-25 AFSK
UKube-1 20 Sep 22:58:27 23:01:51 22° 266° (W) 23:05:16 145.840 MHz, 145.915 MHz
PCSat 20 Sep 23:07:18 23:10:54 18° 254° (WSW) 23:14:28 145.825 MHz
UOSAT-12 20 Sep 23:24:26 23:26:22 12° 108° (ESE) 23:28:18 437.025 FM, 437.400 FM
SO-50 20 Sep 23:30:25 23:34:55 70° 309° (NW) 23:39:33 436.795 FM
HO-68 20 Sep 23:45:08 23:46:33 11° 277° (W) 23:47:58 435.675 MHz FM
KITSAT 1 20 Sep 23:54:36 00:00:22 21° 349° (NNW) 00:06:08 435.175 FM
FUNcube-1 21 Sep 00:10:46 00:13:22 15° 271° (W) 00:16:00 145.950 - 145.970 MHz USB
Saudisat 1A 21 Sep 00:28:47 00:32:08 20° 34° (NE) 00:35:27 436.775 MHz
UOSAT-12 21 Sep 01:01:07 01:05:46 87° 126° (SE) 01:10:31 437.025 FM, 437.400 FM
SO-50 21 Sep 01:13:18 01:16:20 17° 331° (NNW) 01:19:25 436.795 FM
KITSAT 1 21 Sep 01:52:58 01:59:08 23° 19° (NNE) 02:05:16 435.175 FM
Oscar 19 21 Sep 01:54:52 01:58:37 20° 91° (E) 02:02:21 437.125 CW, 437.150 USB
Saudisat 1A 21 Sep 02:07:48 02:12:14 80° 235° (SW) 02:16:39 436.775 MHz
AO-27 21 Sep 02:17:02 02:19:43 14° 88° (E) 02:22:24 436.795 MHz FM
Oscar 16 21 Sep 02:33:08 02:38:05 44° 98° (E) 02:42:59 437.025 USB, Beacon 2401.1428
AO-Echo 21 Sep 02:35:39 02:39:30 23° 93° (E) 02:43:25 ?
UOSAT-12 21 Sep 02:42:59 02:46:33 21° 327° (NNW) 02:50:09 437.025 FM, 437.400 FM
JAS-1B 21 Sep 03:08:42 03:14:13 44° 98° (E) 03:19:39 435.800 - 435.900 CW/SSB
Oscar 10/S400 21 Sep 03:08:57 04:11:19 25° 237° (WSW) 07:11:58 145.825 - 145.975 CW/USB, Beacon 145.810 USB
Gurwin Techsat 1B 21 Sep 03:16:13 03:20:29 24° 92° (E) 03:24:44 435.225 FM
ITAMSAT 1 21 Sep 03:19:20 03:24:23 48° 99° (E) 03:29:25 435.822 SSB
Uribyol 2 21 Sep 03:23:08 03:28:17 55° 101° (E) 03:33:24 436.500 FM
ISS 21 Sep 03:28:28 03:31:44 56° 148° (SSE) 03:35:01 145.800 FM
Oscar 19 21 Sep 03:33:16 03:38:23 60° 289° (WNW) 03:43:25 437.125 CW, 437.150 USB
RS-15 21 Sep 03:42:24 03:51:39 33° 106° (ESE) 04:00:47 29.354 - 29.394 USB, Beacon 29.352 USB
KITSAT 1 21 Sep 03:48:40 03:56:35 53° 46° (NE) 04:04:26 435.175 FM
Saudisat 1A 21 Sep 03:50:31 03:51:02 10° 252° (WSW) 03:51:34 436.775 MHz
TMSAT-1 21 Sep 03:51:56 03:56:50 36° 96° (E) 04:01:41 436.925 FM
AO-27 21 Sep 03:54:40 03:59:55 84° 286° (WNW) 04:05:08 436.795 MHz FM
OPAL 21 Sep 04:02:00 04:06:28 30° 61° (ENE) 04:10:57 ?
Oscar 16 21 Sep 04:12:52 04:17:15 28° 297° (WNW) 04:21:37 437.025 USB, Beacon 2401.1428
AO-Echo 21 Sep 04:13:52 04:18:30 47° 290° (WNW) 04:23:15 ?
AO-7 21 Sep 04:28:48 04:35:11 24° 91° (E) 04:41:31 29.400 - 29.500 MHz
SO-50 21 Sep 04:39:30 04:41:40 13° 21° (NNE) 04:43:52 436.795 FM
Gurwin Techsat 1B 21 Sep 04:55:36 05:00:45 52° 291° (WNW) 05:05:53 435.225 FM
ITAMSAT 1 21 Sep 04:59:20 05:03:38 27° 298° (WNW) 05:07:55 435.822 SSB
JAS-1B 21 Sep 04:59:51 05:04:46 29° 299° (WNW) 05:09:34 435.800 - 435.900 CW/SSB
Uribyol 2 21 Sep 05:03:19 05:07:24 24° 299° (WNW) 05:11:29 436.500 FM
ISS 21 Sep 05:05:21 05:08:33 42° 347° (NNW) 05:11:45 145.800 FM
Oscar 19 21 Sep 05:16:08 05:16:40 10° 308° (NW) 05:17:12 437.125 CW, 437.150 USB
Uosat F 21 Sep 05:25:05 05:29:54 44° 99° (E) 05:34:42 435.120 FM
TMSAT-1 21 Sep 05:31:57 05:36:43 35° 295° (WNW) 05:41:29 436.925 FM
AO-27 21 Sep 05:35:56 05:38:39 15° 305° (NW) 05:41:22 436.795 MHz FM
OPAL 21 Sep 05:40:13 05:45:09 44° 259° (W) 05:50:10 ?
KITSAT 1 21 Sep 05:44:21 05:51:54 45° 248° (WSW) 05:59:24 435.175 FM
JAS-2 21 Sep 05:47:32 05:51:24 17° 89° (E) 05:55:30 435.800 - 435.900 CW/SSB, 435.910 FM
RS-15 21 Sep 05:51:54 06:02:56 79° 309° (NW) 06:13:57 29.354 - 29.394 USB, Beacon 29.352 USB
UOSAT-12 21 Sep 06:09:31 06:10:57 11° 17° (NNE) 06:12:22 437.025 FM, 437.400 FM
SO-50 21 Sep 06:19:00 06:23:31 40° 44° (NE) 06:28:05 436.795 FM
AO-7 21 Sep 06:20:34 06:28:54 83° 291° (WNW) 06:37:11 29.400 - 29.500 MHz
STRAND 1 21 Sep 06:23:55 06:28:30 35° 66° (ENE) 06:33:06 ?
ISS 21 Sep 06:42:36 06:45:44 36° 7° (N) 06:48:51 145.800 FM
Uosat F 21 Sep 07:04:18 07:08:29 27° 297° (WNW) 07:12:40 435.120 FM
Hamsat 21 Sep 07:09:27 07:13:41 61° 101° (E) 07:17:51 145.90 MHz
JAS-2 21 Sep 07:31:03 07:37:04 88° 285° (WNW) 07:43:52 435.800 - 435.900 CW/SSB, 435.910 FM
MaSat-1 21 Sep 07:32:44 07:35:24 15° 102° (ESE) 07:38:03 437.345 MHz
SO-67 21 Sep 07:35:44 07:37:53 15° 92° (E) 07:40:01 435.3500 MHz FM
UOSAT-12 21 Sep 07:48:24 07:52:37 30° 40° (NE) 07:56:47 437.025 FM, 437.400 FM
SO-50 21 Sep 07:59:42 08:04:04 35° 243° (WSW) 08:08:29 436.795 FM
STRAND 1 21 Sep 08:03:06 08:07:41 34° 264° (W) 08:12:19 ?
RS-15 21 Sep 08:07:25 08:17:14 36° 339° (NNW) 08:27:09 29.354 - 29.394 USB, Beacon 29.352 USB
AO-7 21 Sep 08:14:27 08:20:35 24° 313° (NW) 08:26:43 29.400 - 29.500 MHz
ISS 21 Sep 08:19:21 08:22:41 87° 207° (SSW) 08:26:01 145.800 FM
Hamsat 21 Sep 08:46:39 08:49:10 16° 299° (WNW) 08:51:41 145.90 MHz
MaSat-1 21 Sep 09:06:30 09:11:32 86° 299° (WNW) 09:16:24 437.345 MHz
SO-67 21 Sep 09:07:52 09:11:04 36° 289° (WNW) 09:14:15 435.3500 MHz FM
HO-68 21 Sep 09:15:27 09:20:58 23° 91° (E) 09:26:27 435.675 MHz FM
JAS-2 21 Sep 09:17:42 09:21:32 18° 303° (WNW) 09:25:38 435.800 - 435.900 CW/SSB, 435.910 FM
UOSAT-12 21 Sep 09:28:24 09:32:59 49° 240° (WSW) 09:37:28 437.025 FM, 437.400 FM
ISS 21 Sep 09:56:53 09:58:59 16° 225° (SW) 10:01:05 145.800 FM
FUNcube-1 21 Sep 10:20:59 10:22:12 11° 86° (E) 10:23:24 145.950 - 145.970 MHz USB
RS-15 21 Sep 10:24:00 10:33:34 32° 14° (NNE) 10:43:19 29.354 - 29.394 USB, Beacon 29.352 USB
Oscar 11 21 Sep 10:24:30 10:28:08 25° 94° (E) 10:31:44 145.825 FM, Beacon 2401.500 USB
UKube-1 21 Sep 10:42:34 10:46:49 49° 100° (E) 10:51:03 145.840 MHz, 145.915 MHz
MaSat-1 21 Sep 10:45:37 10:48:55 18° 317° (NW) 10:52:07 437.345 MHz
HO-68 21 Sep 11:02:12 11:09:23 77° 290° (WNW) 11:16:33 435.675 MHz FM
Sapphire 21 Sep 11:41:48 11:45:51 22° 107° (ESE) 11:49:56 437.095 MHz 1200 baud AX-25 AFSK
FUNcube-1 21 Sep 11:54:36 11:59:16 90° 285° (WNW) 12:03:51 145.950 - 145.970 MHz USB
Oscar 11 21 Sep 12:00:26 12:04:23 35° 292° (WNW) 12:08:19 145.825 FM, Beacon 2401.500 USB
PCSat 21 Sep 12:07:29 12:12:26 38° 113° (ESE) 12:17:25 145.825 MHz
JAS-1B 21 Sep 12:10:22 12:13:41 14° 50° (NE) 12:16:48 435.800 - 435.900 CW/SSB
Oscar 16 21 Sep 12:16:49 12:19:30 14° 55° (NE) 12:22:11 437.025 USB, Beacon 2401.1428
UKube-1 21 Sep 12:19:32 12:22:42 20° 298° (WNW) 12:25:51 145.840 MHz, 145.915 MHz
RS-15 21 Sep 12:37:35 12:48:34 63° 44° (NE) 12:59:55 29.354 - 29.394 USB, Beacon 29.352 USB
HO-68 21 Sep 12:51:19 12:56:00 19° 311° (NW) 13:00:42 435.675 MHz FM
ITAMSAT 1 21 Sep 13:03:35 13:06:39 16° 56° (ENE) 13:09:43 435.822 SSB
Uribyol 2 21 Sep 13:06:54 13:10:17 18° 58° (ENE) 13:13:42 436.500 FM
Oscar 19 21 Sep 13:14:13 13:19:00 39° 67° (ENE) 13:23:49 437.125 CW, 437.150 USB
Sapphire 21 Sep 13:23:26 13:28:48 65° 306° (NW) 13:34:13 437.095 MHz 1200 baud AX-25 AFSK
FUNcube-1 21 Sep 13:32:52 13:34:56 13° 302° (WNW) 13:37:00 145.950 - 145.970 MHz USB
AO-27 21 Sep 13:37:23 13:41:48 30° 63° (ENE) 13:46:16 436.795 MHz FM
TMSAT-1 21 Sep 13:39:31 13:41:46 13° 54° (NE) 13:44:01 436.925 FM
AO-7 21 Sep 13:44:14 13:47:39 13° 35° (NE) 13:51:04 29.400 - 29.500 MHz
PCSat 21 Sep 13:50:44 13:55:50 40° 313° (NW) 14:00:58 145.825 MHz
AO-Echo 21 Sep 13:51:33 13:55:55 39° 68° (ENE) 14:00:17 ?
Oscar 16 21 Sep 13:52:52 13:58:04 84° 74° (ENE) 14:03:18 437.025 USB, Beacon 2401.1428
JAS-1B 21 Sep 13:55:09 14:03:12 59° 69° (ENE) 14:09:56 435.800 - 435.900 CW/SSB
Gurwin Techsat 1B 21 Sep 14:39:58 14:45:03 49° 69° (ENE) 14:50:10 435.225 FM
ITAMSAT 1 21 Sep 14:40:17 14:45:28 86° 255° (WSW) 14:50:41 435.822 SSB
Uribyol 2 21 Sep 14:44:01 14:49:11 76° 256° (WSW) 14:54:24 436.500 FM
RS-15 21 Sep 14:50:20 15:00:38 47° 249° (WSW) 15:11:21 29.354 - 29.394 USB, Beacon 29.352 USB
Oscar 19 21 Sep 14:53:49 14:58:25 31° 265° (W) 15:03:02 437.125 CW, 437.150 USB
Uosat F 21 Sep 15:05:47 15:08:09 14° 55° (NE) 15:10:32 435.120 FM
Sapphire 21 Sep 15:09:48 15:13:19 17° 329° (NNW) 15:16:51 437.095 MHz 1200 baud AX-25 AFSK
TMSAT-1 21 Sep 15:15:31 15:20:47 73° 73° (ENE) 15:26:05 436.925 FM
AO-27 21 Sep 15:16:18 15:21:10 42° 262° (W) 15:26:06 436.795 MHz FM
AO-7 21 Sep 15:30:39 15:38:21 45° 58° (ENE) 15:46:03 29.400 - 29.500 MHz
AO-Echo 21 Sep 15:30:55 15:34:50 26° 266° (W) 15:38:46 ?
Oscar 16 21 Sep 15:35:25 15:38:05 14° 272° (W) 15:40:47 437.025 USB, Beacon 2401.1428
PCSat 21 Sep 15:38:24 15:40:49 13° 336° (NNW) 15:43:14 145.825 MHz
JAS-1B 21 Sep 15:46:45 15:54:01 33° 264° (W) 16:00:19 435.800 - 435.900 CW/SSB
Saudisat 1A 21 Sep 16:19:21 16:21:20 13° 109° (ESE) 16:23:19 436.775 MHz
Gurwin Techsat 1B 21 Sep 16:20:56 16:25:16 25° 267° (W) 16:29:38 435.225 FM
ITAMSAT 1 21 Sep 16:23:51 16:25:45 12° 273° (W) 16:27:39 435.822 SSB
Uribyol 2 21 Sep 16:28:58 16:29:33 10° 275° (W) 16:30:07 436.500 FM
Uosat F 21 Sep 16:41:10 16:46:10 83° 74° (ENE) 16:51:12 435.120 FM
TMSAT-1 21 Sep 16:57:57 17:01:17 17° 271° (W) 17:04:37 436.925 FM
MaSat-1 21 Sep 17:20:33 17:24:20 40° 53° (NE) 17:27:35 437.345 MHz
AO-7 21 Sep 17:23:04 17:31:03 50° 259° (W) 17:39:06 29.400 - 29.500 MHz
OPAL 21 Sep 17:47:07 17:51:57 38° 99° (E) 17:56:40 ?
JAS-2 21 Sep 17:47:22 17:52:23 52° 69° (ENE) 17:57:28 435.800 - 435.900 CW/SSB, 435.910 FM
Saudisat 1A 21 Sep 17:55:51 18:00:16 85° 307° (NW) 18:04:43 436.775 MHz
Hamsat 21 Sep 18:05:12 18:09:30 63° 74° (ENE) 18:13:49 145.90 MHz
KITSAT 1 21 Sep 18:22:44 18:28:19 21° 102° (ESE) 18:33:55 435.175 FM
Uosat F 21 Sep 18:23:13 18:25:36 13° 272° (W) 18:28:01 435.120 FM
Sapphire 21 Sep 18:43:14 18:45:24 12° 22° (NNE) 18:47:34 437.095 MHz 1200 baud AX-25 AFSK
MaSat-1 21 Sep 18:58:12 19:00:34 16° 257° (WSW) 19:02:45 437.345 MHz
PCSat 21 Sep 19:09:33 19:12:54 16° 30° (NNE) 19:16:15 145.825 MHz
OPAL 21 Sep 19:26:09 19:30:44 33° 298° (WNW) 19:35:16 ?
JAS-2 21 Sep 19:34:01 19:37:55 21° 269° (W) 19:41:51 435.800 - 435.900 CW/SSB, 435.910 FM
Saudisat 1A 21 Sep 19:37:26 19:40:31 18° 328° (NNW) 19:43:36 436.775 MHz
SO-67 21 Sep 19:42:59 19:46:26 72° 258° (WSW) 19:49:54 435.3500 MHz FM
Hamsat 21 Sep 19:43:30 19:45:53 14° 271° (W) 19:48:16 145.90 MHz
HO-68 21 Sep 19:47:43 19:53:22 26° 54° (NE) 19:59:01 435.675 MHz FM
STRAND 1 21 Sep 20:09:59 20:15:06 66° 102° (ESE) 20:20:13 ?
KITSAT 1 21 Sep 20:14:31 20:22:37 87° 123° (ESE) 20:30:45 435.175 FM
